Location: Los Ranchitos
(37.9930°N, 122.5425°W)
Time: 03:03:20
(UTC+00:00)

Ariane Rocket - Pass Details

Date: 21 September 2020
Orbit: 760 x 769 km, 98.7° (Epoch: 27 October)

Event Time Altitude Azimuth Distance (km) Brightness Sun altitude
Exits shadow 04:37:07 31° 219° (SW) 1,314 4.2 -29.0°
Maximum altitude 04:38:47 40° 261° (W) 1,109 4.1 -29.3°
Drops below altitude 10° 04:43:34 10° 331° (NNW) 2,308 6.1 -30.1°
Sets 04:46:01 0° 339° (NNW) 3,240 6.9 -30.5°
